User: anonymous   Login
Location: *
(51.5000°N, 0.1100°W)
Time: 20:02:34
(UTC+00:00)
Language:

SL-19 R/B - Orbit

View from above orbital plane
View from above orbital plane
View from above satellite
View from above satellite

Ground track
Ground track

The orbit data is extracted from the following two-line orbital elements,

1 37363U 11005B   24199.57881947  .00031785  00000-0  69248-3 0  9999
2 37363  99.3591 132.8228 0235916  59.1020 303.3175 15.19854321731269
Epoch (UTC): 17 July 2024 13:53:30
Eccentricity: 0.0235916
inclination: 99.3591°
perigee height: 344 km
apogee height: 669 km
right ascension of ascending node: 132.8228°
argument of perigee: 59.1020°
revolutions per day: 15.19854321
mean anomaly at epoch: 303.3175°
orbit number at epoch: 73126

The dashed part of the orbit path shows where the satellite is in the earth's shadow,  

DLR